Location: Zagreb
(45.8000°N, 16.0000°E)
Time: 03:24:18
(UTC+01:00)

N. Korean satellite - Visible Passes

Search period start: 21 January 2022 00:00
Search period end: 31 January 2022 00:00
Orbit: 446 x 491 km, 97.3° (Epoch: 20 January)

Date Brightness Start Highest point End Pass type
(mag) Time Alt. Az. Time Alt. Az. Time Alt. Az.
21 Jan 9.1 04:33:36 10° NE 04:35:06 19° NE 04:35:06 19° NE visible
21 Jan 7.8 06:06:48 10° NNW 06:09:09 22° NW 06:09:09 22° NW visible
22 Jan 10.0 04:05:48 10° ENE 04:06:01 11° ENE 04:06:01 11° ENE visible
22 Jan 7.0 05:37:13 10° N 05:40:04 43° NW 05:40:04 43° NW visible
23 Jan 7.1 05:08:00 10° NNE 05:10:59 54° NE 05:10:59 54° NE visible
23 Jan 8.6 06:43:40 10° NW 06:44:15 10° WNW 06:44:49 10° WNW visible
23 Jan 9.7 17:18:17 10° SW 17:20:32 16° W 17:22:50 10° NW visible
24 Jan 8.5 04:39:09 10° NNE 04:41:54 29° E 04:41:54 29° E visible
24 Jan 7.9 06:12:38 10° NNW 06:15:22 20° WNW 06:15:57 20° W visible
25 Jan 9.7 04:11:00 10° ENE 04:12:49 14° E 04:12:49 14° E visible
25 Jan 6.9 05:42:54 10° N 05:46:22 42° WNW 05:46:52 39° W visible
26 Jan 6.5 05:13:35 10° NNE 05:17:14 82° E 05:17:47 62° S visible
26 Jan 9.8 17:24:11 10° SW 17:26:09 14° W 17:28:07 10° WNW visible
27 Jan 8.2 04:44:36 10° NNE 04:47:58 35° E 04:48:43 31° SE visible
27 Jan 8.0 06:18:21 10° NNW 06:20:52 18° WNW 06:22:47 13° WSW visible
28 Jan 9.5 04:16:12 10° NE 04:18:35 16° E 04:19:40 15° ESE visible
28 Jan 7.1 05:48:28 10° N 05:51:51 36° WNW 05:53:43 21° SW visible
29 Jan 6.4 05:19:02 10° N 05:22:41 85° WNW 05:24:41 25° SSW visible
29 Jan 10.0 17:30:04 10° WSW 17:31:37 12° W 17:33:11 10° WNW visible
30 Jan 7.9 04:49:57 10° NNE 04:53:25 40° E 04:55:42 18° SSE visible
30 Jan 8.2 06:23:58 10° NNW 06:26:13 16° WNW 06:28:28 10° WSW visible
